[[{"header":{"parameterUnit":"m.s-1","parameterCategory":1,"la1":30.2991,"la2":30.254,"lo1":-89.0895,"lo2":-89.0444,"dy":0.0017,"dx":0.0017,"nx":28,"ny":28,"refTime":"2025-06-11T21:00:00:Z","depth":0,"parameterNumber":2,"parameterNumberName":"U-component_of_WINDS"},"data":[0,0,0,0,0,0,0,0,0,0,0,0,0,0,0,0,0,0,0,0,0,0,0,0,0,0,0,0,0,0,0,0,0,0,0,0,0,0,0,0,0,0,0,0,0,0,0,0,0,0,0,0,0,0,0,0,0,0,-1.928,-1.9281,0,-1.9348,-1.9349,-1.935,-1.9378,-1.9378,-1.9378,-1.9378,-1.9442,-1.9444,-1.9446,0,0,0,0,0,0,0,0,0,0,0,0,0,-1.9171,-1.9173,-1.928,-1.9281,-1.9282,-1.9348,-1.9349,-1.935,-1.9378,-1.9378,-1.9378,-1.9378,-1.9442,-1.9444,-1.9446,0,0,0,0,0,0,0,0,0,0,0,0,0,-1.9226,-1.9173,-1.928,-1.9304,-1.9307,-1.9348,-1.9349,-1.935,-1.9378,-1.9378,-1.9378,-1.9378,-1.9441,-1.9444,-1.9446,-1.9467,0,0,-1.9455,-1.9456,0,0,0,0,0,0,0,0,-1.9223,-1.923,-1.93,-1.9303,-1.9306,-1.9355,-1.9334,-1.9389,-1.9378,-1.9351,-1.9378,-1.9377,-1.9413,-1.9418,-1.9431,-1.947,-1.9472,-1.9455,-1.9456,-1.9458,-1.9458,0,0,0,0,0,0,0,-1.9219,-1.9228,-1.9307,-1.9301,-1.9304,-1.931,-1.9318,-1.9345,-1.9382,-1.9353,-1.9356,-1.9363,-1.9414,-1.9428,-1.9433,-1.9473,-1.9455,-1.9457,-1.9459,-1.946,-1.9533,-1.9533,0,0,0,0,0,0,-1.9212,-1.9224,-1.9305,-1.9309,-1.9263,-1.9312,-1.9321,-1.9339,-1.9382,-1.9388,-1.9364,-1.9365,-1.9424,-1.9429,-1.9435,-1.9462,-1.9458,-1.946,-1.9462,-1.9533,-1.9533,-1.9533,0,0,0,0,0,0,-1.921,-1.9219,-1.9302,-1.9267,-1.9278,-1.9314,-1.9334,-1.934,-1.9354,-1.939,-1.9396,-1.9371,-1.9424,-1.9431,-1.9459,-1.9465,-1.9461,-1.9464,-1.9532,-1.9533,-1.9533,-1.9516,0,0,0,0,0,0,-1.9206,-1.9218,-1.9227,-1.9267,-1.928,-1.9326,-1.9335,-1.9342,-1.9359,-1.9361,-1.9398,-1.9404,-1.9424,-1.9455,-1.9462,-1.9468,-1.9466,-1.9532,-1.9532,-1.9533,-1.9517,-1.9516,-1.9516,0,0,0,0,0,-1.9202,-1.9218,-1.9227,-1.9237,-1.9292,-1.9327,-1.9334,-1.9358,-1.936,-1.9369,-1.9391,-1.9403,-1.9463,-1.9457,-1.9466,-1.9473,-1.9532,-1.9532,-1.9533,-1.9517,-1.9516,-1.9516,0,0,0,0,0,0,-1.9176,-1.9224,-1.9235,-1.9264,-1.9292,-1.9331,-1.9343,-1.9356,-1.9382,-1.9383,-1.941,-1.9418,-1.9444,-1.9461,-1.9454,-1.9495,-1.9498,-1.95,-1.9483,-1.9483,-1.9483,-1.9478,-1.9468,0,0,0,0,0,-1.9174,-1.9199,-1.9239,-1.9262,-1.9275,-1.9307,-1.9322,-1.9339,-1.9367,-1.9378,-1.9403,-1.9429,-1.9454,-1.9469,-1.9494,-1.9519,-1.9528,-1.9529,-1.9528,-1.9528,-1.9529,-1.9544,-1.9545,-1.9535,-1.9535,-1.9535,0,0,-1.9169,-1.9199,-1.9213,-1.9257,-1.928,-1.9304,-1.9316,-1.9341,-1.9359,-1.9381,-1.941,-1.9429,-1.946,-1.9487,-1.95,-1.9502,-1.9534,-1.9529,-1.9528,-1.953,-1.9545,-1.9546,-1.9547,-1.9536,-1.9536,-1.9536,0,0,-1.9174,-1.9199,-1.9221,-1.9244,-1.9279,-1.93,-1.9305,-1.9344,-1.9358,-1.9387,-1.9405,-1.9426,-1.9468,-1.9489,-1.9505,-1.9519,-1.953,-1.9526,-1.9524,-1.9538,-1.9539,-1.954,-1.9544,-1.9546,-1.9527,-1.9527,-1.9527,0,-1.9163,-1.9202,-1.9229,-1.9254,-1.9273,-1.9297,-1.9318,-1.9339,-1.9379,-1.9391,-1.9394,-1.9448,-1.947,-1.9502,-1.9506,-1.9518,-1.9524,-1.9522,-1.9537,-1.9538,-1.9539,-1.9544,-1.9546,-1.9527,-1.9527,-1.9527,-1.9527,0,-1.9187,-1.9214,-1.9227,-1.9268,-1.9288,-1.9311,-1.9341,-1.9358,-1.9373,-1.9393,-1.9423,-1.945,-1.9481,-1.949,-1.9504,-1.9525,-1.9525,-1.9532,-1.9535,-1.9539,-1.9544,-1.9546,-1.9525,-1.9526,-1.9526,-1.9526,0,0,-1.9177,-1.9233,-1.9238,-1.9257,-1.9298,-1.9318,-1.9342,-1.9374,-1.9388,-1.9415,-1.9435,-1.9471,-1.9478,-1.9496,-1.9512,-1.9525,-1.9534,-1.953,-1.9531,-1.953,-1.9559,-1.9553,-1.9555,-1.9542,-1.9543,-1.9543,-1.9556,0,-1.9186,-1.9232,-1.9258,-1.9292,-1.9317,-1.934,-1.936,-1.9387,-1.9407,-1.9429,-1.9451,-1.9476,-1.9483,-1.9494,-1.9508,-1.953,-1.954,-1.9529,-1.956,-1.9561,-1.9552,-1.9558,-1.9552,-1.9563,-1.9558,-1.9558,-1.9559,0,-1.9204,-1.9233,-1.927,-1.9309,-1.9321,-1.9339,-1.9371,-1.9393,-1.9423,-1.9436,-1.9458,-1.9474,-1.9499,-1.9501,-1.9535,-1.9527,-1.9541,-1.9554,-1.9555,-1.9559,-1.956,-1.9561,-1.9567,-1.9569,-1.9562,-1.9562,-1.9562,0,-1.9193,-1.9241,-1.927,-1.9285,-1.9331,-1.9343,-1.9363,-1.9393,-1.9411,-1.9438,-1.945,-1.9479,-1.9495,-1.9516,-1.954,-1.9539,-1.9572,-1.9575,-1.9583,-1.9582,-1.9588,-1.9588,-1.9597,-1.9597,-1.9597,-1.9597,-1.9597,0,-1.9201,-1.9223,-1.9265,-1.9283,-1.9308,-1.9337,-1.936,-1.9381,-1.9408,-1.9429,-1.945,-1.9469,-1.9499,-1.9522,-1.954,-1.9566,-1.9573,-1.9583,-1.9588,-1.9582,-1.958,-1.9591,-1.9591,-1.9598,-1.9598,-1.9598,-1.9598,0,-1.9193,-1.9222,-1.9255,-1.9296,-1.9307,-1.9324,-1.9358,-1.9376,-1.9397,-1.9424,-1.9431,-1.9464,-1.9492,-1.9518,-1.9554,-1.9567,-1.9592,-1.9598,-1.9583,-1.9585,-1.9591,-1.9591,-1.9608,-1.9611,-1.9609,-1.9609,-1.9609,0,-1.9196,-1.9214,-1.9258,-1.9275,-1.9294,-1.932,-1.9339,-1.9368,-1.9386,-1.9423,-1.9435,-1.9465,-1.949,-1.9533,-1.956,-1.9588,-1.9594,-1.9598,-1.9598,-1.9592,-1.9594,-1.9593,-1.9595,-1.9598,-1.9598,-1.9597,-1.9597,0,-1.92,-1.9214,-1.9241,-1.9274,-1.9296,-1.9323,-1.935,-1.9361,-1.9395,-1.9415,-1.9444,-1.9464,-1.9502,-1.9531,-1.9562,-1.9581,-1.9594,-1.9597,-1.9601,-1.9594,-1.9584,-1.959,-1.9581,-1.9597,-1.9597,-1.9597,-1.9597,-1.9597,-1.9198,-1.9215,-1.9248,-1.9278,-1.9302,-1.9327,-1.9346,-1.937,-1.9396,-1.943,-1.9445,-1.9475,-1.9505,-1.9549,-1.9567,-1.959,-1.9593,-1.9597,-1.9598,-1.9599,-1.9598,-1.9581,-1.9595,-1.9595,-1.9595,-1.9596,-1.9596,0,-1.9202,-1.9225,-1.9253,-1.9291,-1.9314,-1.9327,-1.9357,-1.9376,-1.9402,-1.943,-1.9455,-1.9489,-1.9517,-1.9546,-1.9576,-1.9588,-1.9595,-1.9595,-1.9594,-1.9598,-1.9594,-1.9588,-1.9589,-1.9589,-1.9589,-1.9589,-1.9589,-1.9589,-1.9207,-1.9237,-1.9255,-1.9296,-1.9319,-1.935,-1.9366,-1.9389,-1.9411,-1.9449,-1.9473,-1.9492,-1.952,-1.9552,-1.9578,-1.9586,-1.9596,-1.9594,-1.9603,-1.9598,-1.9598,-1.9599,-1.9594,-1.9596,-1.9596,-1.9606,-1.9606,-1.9606]},{"header":{"parameterUnit":"m.s-1","parameterCategory":1,"la1":30.2991,"la2":30.254,"lo1":-89.0895,"lo2":-89.0444,"dy":0.0017,"dx":0.0017,"nx":28,"ny":28,"refTime":"2025-06-11T21:00:00:Z","depth":0,"parameterNumber":3,"parameterNumberName":"V-component_of_WINDS"},"data":[0,0,0,0,0,0,0,0,0,0,0,0,0,0,0,0,0,0,0,0,0,0,0,0,0,0,0,0,0,0,0,0,0,0,0,0,0,0,0,0,0,0,0,0,0,0,0,0,0,0,0,0,0,0,0,0,0,0,3.7481,3.748,0,3.7451,3.7451,3.745,3.7408,3.7408,3.7407,3.7406,3.7374,3.7374,3.7374,0,0,0,0,0,0,0,0,0,0,0,0,0,3.7501,3.75,3.7481,3.748,3.748,3.7451,3.7451,3.745,3.7408,3.7408,3.7407,3.7406,3.7374,3.7374,3.7374,0,0,0,0,0,0,0,0,0,0,0,0,0,3.7484,3.75,3.7481,3.7456,3.7453,3.7451,3.7451,3.745,3.7409,3.7408,3.7407,3.7406,3.7374,3.7374,3.7374,3.7393,0,0,3.7373,3.7372,0,0,0,0,0,0,0,0,3.7485,3.7483,3.746,3.7457,3.7455,3.7432,3.7446,3.7431,3.7409,3.7426,3.7406,3.7405,3.7394,3.7392,3.7389,3.7392,3.739,3.7373,3.7372,3.7372,3.7372,0,0,0,0,0,0,0,3.7486,3.7484,3.7469,3.746,3.7456,3.7446,3.7442,3.7443,3.7416,3.7424,3.7421,3.7418,3.7392,3.7389,3.7388,3.739,3.7373,3.7372,3.7372,3.7372,3.7407,3.7408,0,0,0,0,0,0,3.7491,3.7485,3.747,3.7468,3.7467,3.7446,3.7442,3.7441,3.7416,3.7411,3.7419,3.7416,3.739,3.7388,3.7386,3.7408,3.7372,3.7372,3.7372,3.7406,3.7408,3.7409,0,0,0,0,0,0,3.7491,3.749,3.7471,3.7476,3.7473,3.7447,3.7446,3.7441,3.7437,3.7412,3.7407,3.7421,3.7389,3.7387,3.7392,3.7406,3.7372,3.7372,3.7405,3.7407,3.7408,3.7451,0,0,0,0,0,0,3.7492,3.749,3.7498,3.7476,3.7472,3.7478,3.7446,3.7441,3.7437,3.7433,3.7412,3.7408,3.7388,3.7393,3.7392,3.7405,3.7371,3.7404,3.7406,3.7408,3.7448,3.7454,3.7459,0,0,0,0,0,3.7493,3.751,3.7498,3.7497,3.7481,3.7478,3.7476,3.7454,3.7438,3.7445,3.7429,3.7409,3.7405,3.7394,3.7392,3.7406,3.7403,3.7405,3.7408,3.7446,3.7453,3.7458,0,0,0,0,0,0,3.7533,3.7507,3.7493,3.7504,3.7494,3.7471,3.7479,3.7462,3.7455,3.7452,3.7424,3.7419,3.7428,3.7417,3.7405,3.7423,3.7401,3.7403,3.743,3.7436,3.7442,3.7444,3.7371,0,0,0,0,0,3.7544,3.7544,3.7521,3.7533,3.7528,3.7505,3.7503,3.7487,3.7475,3.747,3.7454,3.7443,3.7439,3.7437,3.7433,3.7447,3.7441,3.7455,3.7461,3.7465,3.7467,3.7474,3.748,3.7417,3.7417,3.7417,0,0,3.7565,3.755,3.7552,3.7541,3.7531,3.7531,3.7502,3.7503,3.7504,3.747,3.7474,3.7462,3.7448,3.7458,3.7461,3.7449,3.7484,3.7468,3.7472,3.7472,3.7477,3.7483,3.7488,3.7419,3.7418,3.7418,0,0,3.7603,3.7592,3.7601,3.7592,3.7578,3.7563,3.7565,3.7545,3.7536,3.754,3.7515,3.7515,3.7509,3.75,3.7495,3.7531,3.7511,3.753,3.7558,3.7565,3.757,3.7574,3.7587,3.7592,3.7533,3.7533,3.7533,0,3.7631,3.7631,3.7608,3.7612,3.7607,3.7578,3.7587,3.7579,3.7564,3.7561,3.7548,3.7541,3.7529,3.7536,3.7546,3.7542,3.7544,3.7532,3.7571,3.7575,3.7578,3.759,3.7595,3.7535,3.7535,3.7535,3.7534,0,3.7666,3.7667,3.7676,3.7662,3.7659,3.7665,3.7643,3.7643,3.7627,3.7613,3.7617,3.7603,3.7594,3.7595,3.7579,3.76,3.7593,3.7576,3.7552,3.7587,3.7598,3.7602,3.7538,3.7538,3.7537,3.7536,0,0,3.7728,3.7703,3.7706,3.77,3.7683,3.7683,3.7688,3.7681,3.7681,3.7672,3.7675,3.7671,3.7656,3.765,3.7633,3.7639,3.7669,3.7621,3.762,3.763,3.7691,3.7704,3.771,3.7657,3.7657,3.7658,3.7692,0,3.7763,3.777,3.775,3.7762,3.7763,3.7736,3.774,3.773,3.7717,3.7715,3.7701,3.7699,3.7678,3.7675,3.768,3.7665,3.7681,3.7662,3.7659,3.7659,3.7663,3.7715,3.7729,3.7762,3.7697,3.7697,3.7698,0,3.7804,3.7798,3.7811,3.7793,3.7793,3.7797,3.7789,3.7788,3.7776,3.7766,3.776,3.7741,3.7745,3.7723,3.7727,3.7715,3.7713,3.7705,3.7706,3.7704,3.768,3.7715,3.7772,3.7777,3.7704,3.7704,3.7703,0,3.7848,3.7843,3.785,3.7845,3.7825,3.7829,3.7821,3.7808,3.7805,3.7798,3.7796,3.7789,3.7786,3.7781,3.7761,3.7747,3.7768,3.7744,3.7759,3.776,3.7764,3.7764,3.7822,3.7764,3.7764,3.7764,3.7764,0,3.7889,3.7897,3.7869,3.7873,3.7883,3.786,3.7869,3.7858,3.7847,3.7848,3.7824,3.7826,3.78,3.7799,3.7783,3.7789,3.7787,3.778,3.7775,3.7781,3.7782,3.7779,3.7776,3.7765,3.7765,3.7764,3.7764,0,3.7939,3.792,3.7926,3.7907,3.7902,3.791,3.7893,3.7896,3.7883,3.7885,3.7884,3.7862,3.786,3.784,3.7832,3.7822,3.7834,3.7825,3.7838,3.7835,3.7852,3.785,3.7908,3.7915,3.7854,3.7854,3.7855,0,3.7966,3.7972,3.7954,3.7953,3.7947,3.7946,3.7943,3.7921,3.7919,3.7907,3.7911,3.7907,3.7902,3.79,3.7883,3.7878,3.7868,3.7889,3.7867,3.7874,3.7868,3.7868,3.7869,3.7894,3.7894,3.7895,3.7896,0,3.8016,3.8006,3.8004,3.7998,3.7996,3.799,3.7983,3.7984,3.7959,3.7958,3.7956,3.7952,3.7946,3.7942,3.7934,3.7924,3.7906,3.7903,3.7906,3.7912,3.792,3.7916,3.785,3.7901,3.7901,3.79,3.79,3.79,3.8055,3.8059,3.8047,3.8045,3.8038,3.8032,3.8034,3.8021,3.8019,3.8012,3.7999,3.7998,3.7987,3.7974,3.7967,3.7966,3.7955,3.7959,3.7961,3.7962,3.7965,3.792,3.7964,3.7964,3.7964,3.7964,3.7963,0,3.8103,3.8095,3.8093,3.8084,3.8082,3.8066,3.8057,3.8057,3.8057,3.8048,3.8044,3.8042,3.8038,3.8022,3.8016,3.8019,3.801,3.8018,3.8018,3.8016,3.7976,3.7973,3.8025,3.8025,3.8025,3.8025,3.8025,3.8025,3.8128,3.8135,3.8125,3.8128,3.8118,3.8118,3.8115,3.8109,3.8102,3.8101,3.8098,3.8087,3.8075,3.8069,3.8065,3.806,3.8059,3.807,3.8062,3.8025,3.8019,3.8013,3.8011,3.807,3.807,3.8102,3.8103,3.8103]}]]